• In Hungary
  • List of Countries
  • For 7 days
  • Water Temperature
  • Satellite Maps
  • Weather Map
  • News
  • Weather Widgets
  • user-avatar
    Login

    Hourly Weather Ordino

    Today, 17 July, Tuesday

    Time Temperature Precipitation Wind Pressure Humidity
    00:00 +9°C° 0 mm 2 mps 636 mmHg 81%
    01:00 +9°C° 0 mm 2 mps 636 mmHg 82%
    02:00 +9°C° 0 mm 2 mps 636 mmHg 83%
    03:00 +9°C° 0 mm 2 mps 636 mmHg 83%
    04:00 +10°C° 0 mm 2 mps 636 mmHg 81%
    05:00 +10°C° 0 mm 2 mps 636 mmHg 79%
    06:00 +12°C° 0 mm 1 mps 636 mmHg 77%
    07:00 +14°C° 0 mm 1 mps 637 mmHg 69%
    08:00 +16°C° 0 mm 1 mps 638 mmHg 60%
    09:00 +20°C° 0 mm 1 mps 639 mmHg 51%
    10:00 +20°C° 0 mm 2 mps 639 mmHg 49%
    11:00 +21°C° 0 mm 2 mps 639 mmHg 47%
    12:00 +21°C° 0 mm 2 mps 639 mmHg 45%
    13:00 +21°C° 0 mm 2 mps 639 mmHg 46%
    14:00 +21°C° 0 mm 2 mps 639 mmHg 47%
    15:00 +21°C° 0 mm 2 mps 639 mmHg 48%
    16:00 +21°C° 0 mm 2 mps 638 mmHg 52%
    17:00 +21°C° 0 mm 1 mps 638 mmHg 55%
    18:00 +20°C° 0 mm 1 mps 637 mmHg 59%
    19:00 +18°C° 0 mm 1 mps 637 mmHg 68%
    20:00 +15°C° 0 mm 1 mps 636 mmHg 76%
    21:00 +13°C° 0 mm 1 mps 636 mmHg 85%
    22:00 +13°C° 0 mm 1 mps 636 mmHg 86%
    23:00 +13°C° 0 mm 1 mps 636 mmHg 86%

    Tomorrow, 18 July, Wednesday

    Time Temperature Precipitation Wind Pressure Humidity
    00:00 +12°C° 0 mm 1 mps 636 mmHg 87%
    01:00 +12°C° 0 mm 1 mps 635 mmHg 86%
    02:00 +12°C° 0 mm 1 mps 635 mmHg 85%
    03:00 +12°C° 0 mm 1 mps 635 mmHg 84%
    04:00 +13°C° 0 mm 1 mps 635 mmHg 79%
    05:00 +13°C° 0 mm 1 mps 635 mmHg 75%
    06:00 +14°C° 0 mm 1 mps 636 mmHg 71%
    07:00 +18°C° 0 mm 1 mps 636 mmHg 63%
    08:00 +19°C° 0 mm 2 mps 637 mmHg 55%
    09:00 +23°C° 0 mm 2 mps 638 mmHg 47%
    10:00 +24°C° 0 mm 3 mps 638 mmHg 44%
    11:00 +25°C° 0 mm 3 mps 638 mmHg 41%
    12:00 +26°C° 0 mm 3 mps 638 mmHg 39%
    13:00 +26°C° 0.1 mm 3 mps 638 mmHg 39%
    14:00 +26°C° 0.1 mm 4 mps 638 mmHg 40%
    15:00 +26°C° 0.1 mm 4 mps 638 mmHg 40%
    16:00 +24°C° 0.4 mm 3 mps 637 mmHg 47%
    17:00 +23°C° 0.4 mm 2 mps 636 mmHg 54%
    18:00 +20°C° 0.4 mm 2 mps 636 mmHg 61%
    19:00 +18°C° 0.1 mm 2 mps 636 mmHg 68%
    20:00 +16°C° 0.1 mm 1 mps 635 mmHg 75%
    21:00 +14°C° 0.1 mm 1 mps 635 mmHg 82%
    22:00 +14°C° 0 mm 1 mps 635 mmHg 81%
    23:00 +14°C° 0 mm 1 mps 635 mmHg 80%

    Day after tomorrow, 19 July, Thursday

    Time Temperature Precipitation Wind Pressure Humidity
    00:00 +14°C° 0 mm 1 mps 635 mmHg 79%
    01:00 +14°C° 0 mm 1 mps 635 mmHg 78%
    02:00 +14°C° 0 mm 1 mps 634 mmHg 77%
    03:00 +13°C° 0 mm 1 mps 634 mmHg 75%
    04:00 +14°C° 0 mm 1 mps 635 mmHg 73%
    05:00 +15°C° 0 mm 1 mps 635 mmHg 71%
    06:00 +16°C° 0 mm 1 mps 635 mmHg 69%
    07:00 +19°C° 0 mm 1 mps 636 mmHg 59%
    08:00 +20°C° 0 mm 2 mps 637 mmHg 50%
    09:00 +24°C° 0 mm 2 mps 638 mmHg 41%
    10:00 +25°C° 0 mm 3 mps 638 mmHg 38%
    11:00 +26°C° 0 mm 3 mps 638 mmHg 36%
    12:00 +27°C° 0 mm 4 mps 638 mmHg 33%
    13:00 +27°C° 0 mm 4 mps 638 mmHg 34%
    14:00 +27°C° 0 mm 4 mps 638 mmHg 34%
    15:00 +27°C° 0 mm 4 mps 637 mmHg 35%
    16:00 +25°C° 0.2 mm 3 mps 637 mmHg 42%
    17:00 +24°C° 0.2 mm 2 mps 636 mmHg 48%
    18:00 +23°C° 0.2 mm 2 mps 636 mmHg 55%
    19:00 +21°C° 0.2 mm 1 mps 635 mmHg 61%
    20:00 +19°C° 0.2 mm 1 mps 635 mmHg 67%
    21:00 +15°C° 0.2 mm 1 mps 635 mmHg 73%
    22:00 +15°C° 0.1 mm 1 mps 634 mmHg 73%
    23:00 +14°C° 0.1 mm 1 mps 634 mmHg 74%

    20 July, Friday

    Time Temperature Precipitation Wind Pressure Humidity
    00:00 +14°C° 0.1 mm 1 mps 634 mmHg 74%
    01:00 +14°C° 0 mm 1 mps 634 mmHg 71%
    02:00 +13°C° 0 mm 1 mps 634 mmHg 69%
    03:00 +13°C° 0 mm 1 mps 634 mmHg 67%
    04:00 +13°C° 0 mm 1 mps 634 mmHg 67%
    05:00 +14°C° 0 mm 1 mps 634 mmHg 67%
    06:00 +14°C° 0 mm 1 mps 634 mmHg 68%
    07:00 +16°C° 0 mm 1 mps 635 mmHg 63%
    08:00 +18°C° 0 mm 2 mps 636 mmHg 58%
    09:00 +20°C° 0 mm 2 mps 637 mmHg 53%
    10:00 +20°C° 0.1 mm 2 mps 637 mmHg 53%
    11:00 +21°C° 0.1 mm 3 mps 637 mmHg 54%
    12:00 +21°C° 0.1 mm 3 mps 637 mmHg 55%
    13:00 +21°C° 0.3 mm 3 mps 637 mmHg 57%
    14:00 +20°C° 0.3 mm 3 mps 637 mmHg 60%
    15:00 +20°C° 0.3 mm 3 mps 636 mmHg 63%
    16:00 +19°C° 0.6 mm 2 mps 636 mmHg 67%
    17:00 +18°C° 0.6 mm 2 mps 636 mmHg 70%
    18:00 +17°C° 0.6 mm 2 mps 636 mmHg 74%
    19:00 +16°C° 0.3 mm 2 mps 636 mmHg 79%
    20:00 +15°C° 0.3 mm 2 mps 636 mmHg 85%
    21:00 +13°C° 0.3 mm 2 mps 636 mmHg 90%
    22:00 +13°C° 0 mm 2 mps 636 mmHg 90%
    23:00 +13°C° 0 mm 2 mps 636 mmHg 91%

    21 July, Saturday

    Time Temperature Precipitation Wind Pressure Humidity
    00:00 +12°C° 0 mm 1 mps 636 mmHg 91%
    01:00 +12°C° 0 mm 1 mps 635 mmHg 91%
    02:00 +12°C° 0 mm 2 mps 635 mmHg 91%
    03:00 +10°C° 0 mm 2 mps 635 mmHg 91%
    04:00 +10°C° 0 mm 2 mps 635 mmHg 89%
    05:00 +12°C° 0 mm 2 mps 635 mmHg 88%
    06:00 +12°C° 0 mm 2 mps 636 mmHg 86%
    07:00 +14°C° 0 mm 2 mps 636 mmHg 76%
    08:00 +16°C° 0 mm 2 mps 637 mmHg 66%
    09:00 +18°C° 0 mm 2 mps 638 mmHg 57%
    10:00 +19°C° 0 mm 2 mps 638 mmHg 52%
    11:00 +20°C° 0 mm 2 mps 639 mmHg 48%
    12:00 +23°C° 0 mm 2 mps 639 mmHg 44%
    13:00 +21°C° 0.1 mm 2 mps 639 mmHg 46%
    14:00 +21°C° 0.1 mm 3 mps 638 mmHg 48%
    15:00 +21°C° 0.1 mm 3 mps 638 mmHg 51%
    16:00 +20°C° 0.4 mm 3 mps 638 mmHg 57%
    17:00 +19°C° 0.4 mm 3 mps 638 mmHg 63%
    18:00 +18°C° 0.4 mm 3 mps 637 mmHg 69%
    19:00 +16°C° 0.1 mm 2 mps 637 mmHg 75%
    20:00 +15°C° 0.1 mm 2 mps 637 mmHg 81%
    21:00 +13°C° 0.1 mm 2 mps 637 mmHg 87%
    22:00 +13°C° 0 mm 2 mps 637 mmHg 88%
    23:00 +12°C° 0 mm 2 mps 637 mmHg 88%

    22 July, Sunday

    Time Temperature Precipitation Wind Pressure Humidity
    00:00 +12°C° 0 mm 2 mps 636 mmHg 88%
    01:00 +10°C° 0 mm 2 mps 636 mmHg 88%
    02:00 +10°C° 0 mm 2 mps 636 mmHg 88%
    03:00 +9°C° 0 mm 2 mps 636 mmHg 87%
    04:00 +10°C° 0 mm 2 mps 636 mmHg 86%
    05:00 +12°C° 0 mm 2 mps 636 mmHg 84%
    06:00 +12°C° 0 mm 2 mps 637 mmHg 82%
    07:00 +15°C° 0 mm 2 mps 637 mmHg 70%
    08:00 +17°C° 0 mm 2 mps 638 mmHg 58%
    09:00 +19°C° 0 mm 2 mps 639 mmHg 47%
    10:00 +20°C° 0 mm 2 mps 639 mmHg 43%
    11:00 +23°C° 0 mm 2 mps 639 mmHg 40%
    12:00 +24°C° 0 mm 2 mps 639 mmHg 36%
    13:00 +24°C° 0 mm 2 mps 639 mmHg 37%
    14:00 +24°C° 0 mm 2 mps 639 mmHg 38%
    15:00 +25°C° 0 mm 2 mps 639 mmHg 39%
    16:00 +24°C° 0 mm 2 mps 638 mmHg 44%
    17:00 +23°C° 0 mm 2 mps 638 mmHg 50%
    18:00 +20°C° 0 mm 2 mps 638 mmHg 55%
    19:00 +19°C° 0 mm 1 mps 637 mmHg 63%
    20:00 +16°C° 0 mm 1 mps 637 mmHg 70%
    21:00 +14°C° 0 mm 1 mps 636 mmHg 78%
    22:00 +14°C° 0 mm 1 mps 636 mmHg 78%
    23:00 +14°C° 0 mm 1 mps 636 mmHg 79%
    Show more